FENGYUN 1C DEB, 41018

Orbit data source: Space-Track

FENGYUN 1C DEB, 41018 is space debris in SSO originally from a launch on Mon, 10 May 1999 UTC launched from the Taiyaun Space Center, China (TSC). Fengyun 1C debris stems from the Chinese weather satellite Fengyun-1C, which was intentionally destroyed by a Chinese anti-satellite missile in 2007. This event dramatically increased the amount of space debris, with thousands of trackable fragments posing hazards to satellites and human spaceflight. The Fengyun 1C debris cloud has become a focal point in discussions about space sustainability and the need for international regulations to prevent the creation of new debris.

Loading next visibility...
Identifier
41018, 1999-025EXY
Orbit
SSO
Country
Flag of CNCN / PRC
Related business
Manufacturer
Unknown
Mission
Spacecraft
Bus & Motor
Unknown
Mass
Unknown
Launch date (UTC)
1999-05-10 (27 years ago)
Launch vehicle
Unknown
Launch site
Taiyaun Space Center, China (TSC)
Object type
Payload
Rocket body
Debris
Shape & HBR
Unknown shape, 0.1 m
Radar Cross Section
Small (<0.1 m²)

Expand to show TLE details & history
Last TLE update: 1 week ago

TLE from 1 week ago
0 FENGYUN 1C DEB
1 41018U 99025EXY 26165.12818693  .00001376  00000-0  15604-2 0  9992
2 41018  99.9418 115.2080 0314279  25.7377 335.9027 13.52941310906542
Epoch: 2026-06-14T03:04Z
TLE epoch observation values (Epoch: 2026-06-14T03:04:35.350Z)
Latitude
-0.00007°
Longitude
166.62735°
Altitude
852.045 km
Speed
7.532 km/s
True Right ascension
07h 40m 49s
True Declination
0° 00' 00"
Sunlit
Object was in daylight at epoch
Visualization orbit readout
Latitude
Unknown
Longitude
Unknown
Altitude
Unknown
Speed
Unknown
Apparent Right ascension
Unknown
Apparent Declination
Unknown
Sunlit
N/A
Visualization observer readout
Local Sidereal Time
21:23:37
Azimuth
Unknown
Elevation
Unknown
Doppler factor
Unknown
Orbital elements
Apogee altitude
1,292.489 km
Perigee altitude
825.036 km
Semi-major axis
7,436.899 km
Eccentricity
0.03143
Inclination
99.9418°
RAAN
115.208°
Arg. of periapsis
25.7377°
True anomaly
334.37788°
Mean anomaly
335.9027°
Eccentric anomaly
335.14585°
Mean motion
3.38419 °/min
Orbital period
106.38 mins
BSTAR
0.0015604
Loading maneuver chart data...
Computing Atmospheric mass density...
Loading historical data...
Loading historical data...
Loading historical data...
Loading historical data...
Loading historical data...
Loading historical data...
Loading historical data...

Documentation

Showing up to 5 results
|